Regional Weather Roundup
Issued by NWS

Home | Current Version | Previous Version | Graphics & Text | Print | Product List | Glossary Off
Versions: 1 2 3 4 5 6 7 8 9 10 11 12 13 14 15 16 17 18 19 20 21 22 23 24 25 26 27 28 29 30 31 32 33 34 35 36 37 38 39 40 41 42 43 44 45 46 47 48 49 50

000
ASUS45 KCYS 251910
RWRWY

WYOMING REGIONAL WEATHER ROUNDUP
NATIONAL WEATHER SERVICE CHEYENNE WY
100 PM MDT TUE APR 25 2017

NOTE:  "FAIR" INDICATES FEW OR NO CLOUDS BELOW 12,000 FEET
WITH NO SIGNIFICANT WEATHER AND/OR OBSTRUCTIONS TO VISIBILITY.

WYZ001-252000-
YELLOWSTONE NATIONAL PARK

CITY           SKY/WX    TMP DP  RH WIND       PRES   REMARKS
LK YELLOWSTONE   N/A     38  26  62 NW9       29.79R WCI  31
W YELLOWSTONE  NOT AVBL

$$
WYZ002>013-054>058-071-098>099-252000-
NORTHERN WYOMING

CITY           SKY/WX    TMP DP  RH WIND       PRES   REMARKS
JACKSON        PTSUNNY   43  34  70 W7        29.75S
CODY           CLOUDY    37  31  78 N16       29.82S WCI  28
GREYBULL       CLOUDY    40  29  64 NW35      29.74R WCI  28
WORLAND        CLOUDY    44  36  73 NW21G29   29.74R
SHERIDAN       LGT SNOW  34  29  82 N6        29.84S VSB 1   WCI  29
BUFFALO        NOT AVBL
GILLETTE       SNOW      28  28 100 N21       29.78R WCI  15
HULETT         LGT SNOW  28  27  93 NE13      29.78R VSB 1   WCI  18
NEWCASTLE      LGT RAIN  34  34 100 N8        29.69R WCI  27

$$
WYZ014>020-022>026-101>103-252000-
CENTRAL WYOMING

CITY           SKY/WX    TMP DP  RH WIND       PRES   REMARKS
BIG PINEY      FAIR      46  25  43 N20G31    29.72S
PINEDALE       CLOUDY    37  30  75 NW20      29.72S WCI  27
DUBOIS         CLOUDY    36  27  69 W15       29.72R WCI  26
LANDER         LGT RAIN  38  31  76 NW16G23   29.75R WCI  29
RIVERTON       MIX PCPN  37  33  85 N22       29.75R WCI  26
CASPER         LGT SNOW  30  26  85 N22G28    29.75R FOG     WCI  17
DOUGLAS        FLURRIES  34  27  75 NW26G37   29.68R WCI  21

$$
WYZ021-027>030-104>119-252000-
SOUTHERN WYOMING

CITY           SKY/WX    TMP DP  RH WIND       PRES   REMARKS
EVANSTON       CLOUDY    40  28  62 W18G24    29.80R WCI  31
KEMMERER         N/A     36  30  80 NW20G26   29.77S WCI  25
FORT BRIDGER   CLOUDY    44  30  58 NW22G30   29.80S
ROCK SPRINGS   LGT RAIN  40  30  67 N15G22    29.71R WCI  32
DIXON            N/A     44  31  60 S13       29.70F
RAWLINS        LGT SNOW  32  29  88 N13       29.71R FOG     WCI  22
SARATOGA       MOCLDY    43  30  61 NW18G24   29.68R
LARAMIE        CLOUDY    42  22  44 W14       29.62R
CHEYENNE       PTSUNNY   50  23  34 NW14G32   29.60F
TORRINGTON     CLOUDY    45  38  76 NE16      29.62R
PINE BLUFFS    MOCLDY    54  28  37 NW24G30   29.59S

$$



USA.gov is the U.S. government's official web portal to all federal, state and local government web resources and services.